Location: Grand Rapids
(42.9630°N, 85.6680°W)
Time: 03:31:37
(UTC-04:00)

S-56A Canister/Altair - Pass Details

Date: 08 June 2024
Orbit: 637 x 2489 km, 38.9° (Epoch: 22 June)

Event Time Altitude Azimuth Distance (km) Brightness Sun altitude
Rises 03:28:02 0° 244° (WSW) 5,702 - -19.7°
Reaches altitude 10° 03:31:32 10° 242° (WSW) 4,858 - -19.5°
Exits shadow 03:33:05 15° 241° (WSW) 4,496 10.9 -19.3°
Maximum altitude 03:45:51 68° 164° (SSE) 2,625 10.0 -18.2°
Drops below altitude 10° 04:00:04 10° 86° (E) 4,831 12.1 -16.9°
Sets 04:03:31 0° 84° (E) 5,671 12.6 -16.5°
